Weather History for EGPH - October, 2012

Change the Weather History Date:

Wednesday, October 17, 2012

  Actual Average Record
Temperature  
Mean Temperature 38 °F -  
Max Temperature 48 °F 51 °F 64 °F (1997)
Min Temperature 28 °F 39 °F 28 °F (2003)
Degree Days  
Heating Degree Days 27    
Moisture  
Dew Point 40 °F    
Average Humidity 96    
Maximum Humidity 100    
Minimum Humidity 87    
Precipitation  
Precipitation 0.00 in 0.08 in - ()
Sea Level Pressure  
Sea Level Pressure 29.37 in    
Wind  
Wind Speed 5 mph ()    
Max Wind Speed 14 mph    
Max Gust Speed -    
Visibility 5.1 miles    
Events Fog , Rain    
Averages and records for this station are not official NWS values.
T = Trace of Precipitation, MM = Missing Value Source: Averaged Metar Reports

Daily Weather History Graph

Daily Weather History Graph

Search for Another Location

Airport or City:

Trip Planner

Search our weather history database for the weather conditions in past years. The results will help you decide how hot, cold, wet, or windy it might be!

Date:

Astronomy

Oct. 17, 2012 Rise Set
Actual Time 7:49 AM BST 6:06 PM BST
Civil Twilight 7:11 AM BST 6:44 PM BST
Nautical Twilight 6:28 AM BST 7:27 PM BST
Astronomical Twilight 5:45 AM BST 8:10 PM BST
Moon 10:39 AM BST (10/17) 6:54 PM BST (10/17)
Length of Visible Light 11h 33m
Length of Day
10h 17m
Waxing Crescent, 6% of the Moon is Illuminated
Oct 17
Waxing Crescent
Oct 22
First Quarter
Oct 29
Full
Nov 7
Last Quarter
Nov 13
New

Hourly Weather History & Observations

Time (BST) Temp. Windchill Dew Point Humidity Pressure Visibility Wind Dir Wind Speed Gust Speed Precip Events Conditions
12:20 AM 33.8 °F - 33.8 °F 100% 29.50 in - SSW 2.3 mph - N/A   Clear
12:50 AM 32.0 °F - 32.0 °F 100% 29.50 in - Calm Calm - N/A   Clear
1:20 AM 32.0 °F 28.7 °F 32.0 °F 100% 29.50 in - Variable 3.5 mph - N/A   Clear
1:50 AM 32.0 °F - 30.2 °F 93% 29.50 in 4.3 mi Calm Calm - N/A   Unknown
2:20 AM 32.0 °F - 30.2 °F 93% 29.50 in 4.3 mi Calm Calm - N/A Fog Shallow Fog
2:50 AM 30.2 °F - 30.2 °F 100% 29.47 in 0.2 mi Calm Calm - N/A Fog Light Freezing Fog
3:20 AM 30.2 °F - 30.2 °F 100% 29.47 in 0.4 mi Calm Calm - N/A Fog Light Freezing Fog
3:50 AM 28.4 °F - 28.4 °F 100% 29.47 in 0.3 mi Variable 2.3 mph - N/A Fog Light Freezing Fog
4:20 AM 28.4 °F - 28.4 °F 100% 29.44 in 0.4 mi Variable 2.3 mph - N/A Fog Light Freezing Fog
4:50 AM 28.4 °F - 28.4 °F 100% 29.44 in 0.5 mi Calm Calm - N/A Fog Light Freezing Fog
5:20 AM 30.2 °F - 28.4 °F 93% 29.42 in 2.2 mi Calm Calm - N/A   Mist
5:50 AM 30.2 °F - 30.2 °F 100% 29.42 in 5.0 mi Calm Calm - N/A   Scattered Clouds
6:20 AM 30.2 °F - 30.2 °F 100% 29.42 in 5.6 mi Calm Calm - N/A   Scattered Clouds
6:50 AM 32.0 °F 27.5 °F 32.0 °F 100% 29.42 in 6.2 mi East 4.6 mph - N/A   Scattered Clouds
7:20 AM 37.4 °F 32.1 °F 35.6 °F 93% 29.39 in 6.2 mi ENE 6.9 mph - N/A   Partly Cloudy
7:50 AM 37.4 °F 32.1 °F 37.4 °F 100% 29.39 in 6.2 mi ENE 6.9 mph - N/A   Partly Cloudy
8:20 AM 39.2 °F 37.0 °F 37.4 °F 93% 29.39 in 6.2 mi Variable 3.5 mph - N/A   Partly Cloudy
8:50 AM 41.0 °F 35.2 °F 39.2 °F 93% 29.36 in 6.2 mi East 9.2 mph - N/A   Mostly Cloudy
9:20 AM 42.8 °F 37.0 °F 41.0 °F 93% 29.36 in 6.2 mi East 10.4 mph - N/A   Mostly Cloudy
9:50 AM 42.8 °F 38.6 °F 41.0 °F 93% 29.36 in 6.2 mi East 6.9 mph - N/A Rain Light Rain
10:20 AM 42.8 °F 38.0 °F 42.8 °F 100% 29.36 in 6.2 mi ENE 8.1 mph - N/A Rain Light Rain
10:50 AM 44.6 °F 38.1 °F 42.8 °F 93% 29.36 in 6.2 mi East 13.8 mph - N/A Rain Light Rain
11:20 AM 44.6 °F 39.2 °F 42.8 °F 93% 29.33 in 5.6 mi ENE 10.4 mph - N/A Rain Light Rain
11:50 AM 46.4 °F 40.7 °F 44.6 °F 93% 29.33 in 4.3 mi ENE 12.7 mph - N/A Rain Rain
12:20 PM 46.4 °F 40.4 °F 44.6 °F 93% 29.30 in 5.6 mi East 13.8 mph - N/A Rain Light Rain
12:50 PM 46.4 °F 40.4 °F 44.6 °F 93% 29.30 in 4.3 mi East 13.8 mph - N/A Rain Rain
1:20 PM 46.4 °F 41.1 °F 42.8 °F 87% 29.30 in 6.2 mi ENE 11.5 mph - N/A Rain Light Rain
1:50 PM 46.4 °F 41.9 °F 44.6 °F 93% 29.30 in 6.2 mi ENE 9.2 mph - N/A Rain Light Rain
2:20 PM 46.4 °F 41.5 °F 44.6 °F 93% 29.30 in 6.2 mi ENE 10.4 mph - N/A Rain Light Rain
2:50 PM 46.4 °F 41.9 °F 44.6 °F 93% 29.30 in 6.2 mi ENE 9.2 mph - N/A Rain Light Rain
3:20 PM 46.4 °F 42.4 °F 44.6 °F 93% 29.30 in 5.0 mi ENE 8.1 mph - N/A Rain Light Rain
3:50 PM 48.2 °F - 46.4 °F 93% 29.30 in 6.2 mi East 9.2 mph - N/A Rain Light Rain
4:20 PM 46.4 °F 42.4 °F 46.4 °F 100% 29.30 in 6.2 mi East 8.1 mph - N/A Rain Light Rain
4:50 PM 46.4 °F 42.4 °F 46.4 °F 100% 29.30 in 5.6 mi ENE 8.1 mph - N/A Rain Light Rain
5:20 PM 46.4 °F 42.9 °F 46.4 °F 100% 29.30 in 5.6 mi ENE 6.9 mph - N/A Rain Light Rain
5:50 PM 46.4 °F 42.9 °F 46.4 °F 100% 29.30 in 5.6 mi ENE 6.9 mph - N/A Rain Light Rain
6:20 PM 46.4 °F 42.4 °F 44.6 °F 93% 29.33 in 5.6 mi East 8.1 mph - N/A Rain Light Rain
6:50 PM 46.4 °F 41.5 °F 46.4 °F 100% 29.33 in 6.2 mi East 10.4 mph - N/A Rain Light Rain
7:20 PM 46.4 °F 41.9 °F 46.4 °F 100% 29.33 in 5.6 mi East 9.2 mph - N/A Rain Light Rain
7:50 PM 46.4 °F 41.9 °F 46.4 °F 100% 29.33 in 6.2 mi ENE 9.2 mph - N/A Rain Light Rain
8:20 PM 46.4 °F 41.9 °F 46.4 °F 100% 29.33 in 6.2 mi ENE 9.2 mph - N/A Rain Light Rain
8:50 PM 46.4 °F 42.4 °F 44.6 °F 93% 29.36 in 5.6 mi East 8.1 mph - N/A Rain Light Rain
9:20 PM 46.4 °F 42.4 °F 44.6 °F 93% 29.36 in 5.6 mi ENE 8.1 mph - N/A Rain Light Rain
9:50 PM 46.4 °F 42.4 °F 44.6 °F 93% 29.36 in 6.2 mi ENE 8.1 mph - N/A Rain Light Rain
10:20 PM 46.4 °F 43.5 °F 44.6 °F 93% 29.39 in 6.2 mi ENE 5.8 mph - N/A Rain Light Rain
10:50 PM 46.4 °F 43.5 °F 44.6 °F 93% 29.39 in 6.2 mi ENE 5.8 mph - N/A   Scattered Clouds
11:20 PM 44.6 °F 40.7 °F 44.6 °F 100% 29.39 in 6.2 mi ENE 6.9 mph - N/A   Scattered Clouds
11:50 PM 44.6 °F 40.7 °F 42.8 °F 93% 29.39 in 6.2 mi ENE 6.9 mph - N/A   Scattered Clouds